Home > Weather > Christiansted > Past weeks

Flag for US Virgin Islands Weather for the Past 2 Weeks in Christiansted, US Virgin Islands

Now
75 °F

Passing clouds.


Feels Like: 76 °F
Forecast: 72 / 82 °F
Wind: 6 mph from Northeast

Location: Christiansted / Henry E. Rohlsen Airport - Saint Croix

Current Time: Feb 11, 2016 at 5:43:20 AM

Latest Report: Feb 11, 2016 at 4:53 AM


Visibility: 10 mi

Pressure: 30.06 "Hg

Humidity: 79%

Dew point: 68 °F

Location of ChristianstedLocation

Historic Weather in Christiansted — Graph

°F

Christiansted Temperature Yesterday

Maximum temperature yesterday: 86 °F (at 12:53 PM)
Minimum temperature yesterday: 75 °F (at 8:53 PM)
Average temperature yesterday: 80 °F

High & Low Weather Summary for the Past Weeks

 TemperatureHumidityPressure
High86 °F (Jan 27, 11:53 AM)91% (Jan 30, 2:53 AM)30.15 "Hg (Jan 30, 2:53 AM)
Low68 °F (Feb 3, 4:53 AM)48% (Jan 31, 3:11 PM)29.89 "Hg (Feb 4, 3:53 PM)
Average79 °F72%30.03 "Hg
* Reported Jan 27 3:53 AM — Feb 11 3:53 AM, Christiansted, Weather by CustomWeather, © 2016

Note: Actual official high and low records may vary slightly from our data, if they occured in-between our weather recording intervals... More about our weather records

Advertising

Christiansted Weather History for the Previous 24 Hours

 ConditionsComfort  
Time TempWeatherWind HumidityBarometerVisibility
3:53 AM
Thu, Feb 11
74 °FPassing clouds.7 mph82%30.06 "Hg10 mi
2:53 AM75 °FPassing clouds.8 mph79%30.05 "Hg10 mi
1:53 AM75 °FPassing clouds.5 mph82%30.07 "Hg10 mi
12:53 AM75 °FPassing clouds.5 mph88%30.09 "Hg10 mi
11:53 PM
Wed, Feb 10
75 °FMostly cloudy.5 mph88%30.11 "Hg10 mi
10:53 PM75 °FLight rain. Overcast.3 mph88%30.12 "Hg10 mi
9:53 PM75 °FPassing clouds.5 mph79%30.12 "Hg10 mi
8:53 PM75 °FClear.5 mph79%30.11 "Hg10 mi
7:53 PM76 °FPassing clouds.3 mph74%30.09 "Hg10 mi
6:53 PM79 °FPassing clouds.6 mph69%30.08 "Hg10 mi
5:53 PM81 °FPassing clouds.8 mph65%30.07 "Hg10 mi
4:53 PM83 °FPassing clouds.10 mph63%30.05 "Hg10 mi
3:53 PM84 °FPassing clouds.10 mph61%30.04 "Hg10 mi
2:53 PM84 °FPassing clouds.13 mph59%30.04 "Hg10 mi
1:53 PM85 °FPassing clouds.14 mph59%30.07 "Hg10 mi
12:53 PM86 °FScattered clouds.16 mph59%30.09 "Hg10 mi
11:53 AM85 °FPassing clouds.16 mph61%30.12 "Hg10 mi
10:53 AM85 °FPassing clouds.16 mph61%30.14 "Hg10 mi
9:53 AM84 °FPassing clouds.17 mph65%30.14 "Hg10 mi
8:53 AM83 °FScattered clouds.15 mph65%30.13 "Hg10 mi
7:53 AM81 °FScattered clouds.13 mph72%30.11 "Hg10 mi
6:53 AM79 °FScattered clouds.13 mph77%30.09 "Hg10 mi
5:53 AM79 °FPassing clouds.13 mph74%30.06 "Hg10 mi
Weather by CustomWeather, © 2016

See weather overviewHow to use our weather pages